| time (UTC) | temp C | wind direction | speed KPH | gust KPH | rain 1hr cm | rain 24hr cm | rain mn cm | humidity % | barometer mb |
| 20260506062003 | 16 | 308 | 17.7 | 20.9 | 0.00 | 0.00 | 0.00 | 45 | 1014.2 |
| 20260506061003 | 16 | 307 | 16.1 | 19.3 | 0.00 | 0.00 | 0.00 | 45 | 1014.1 |
| 20260506051003 | 16 | 305 | 11.3 | 16.1 | 0.00 | 0.00 | 0.00 | 44 | 1014.3 |
| 20260506045003 | 16 | 307 | 12.9 | 16.1 | 0.00 | 0.00 | 0.00 | 44 | 1014.2 |
| 20260506044003 | 16 | 309 | 11.3 | 12.9 | 0.00 | 0.00 | 0.00 | 44 | 1014.2 |
| 20260506043003 | 15 | 308 | 6.4 | 12.9 | 0.00 | 0.00 | 0.00 | 46 | 1014.2 |
| 20260506042003 | 13 | 325 | 3.2 | 6.4 | 0.00 | 0.00 | 0.00 | 51 | 1014.1 |
| 20260506041003 | 14 | 342 | 4.8 | 8.0 | 0.00 | 0.00 | 0.00 | 50 | 1014.0 |
| 20260506040004 | 16 | 305 | 4.8 | 11.3 | 0.00 | 0.00 | 0.00 | 45 | 1014.0 |
| 20260506035003 | 16 | 280 | 6.4 | 12.9 | 0.00 | 0.00 | 0.00 | 43 | 1014.0 |
| 20260506034003 | 17 | 280 | 3.2 | 8.0 | 0.00 | 0.00 | 0.00 | 43 | 1013.8 |
| 20260506033004 | 17 | 281 | 3.2 | 6.4 | 0.00 | 0.00 | 0.00 | 43 | 1013.8 |
| 20260506032003 | 17 | 263 | 1.6 | 4.8 | 0.00 | 0.00 | 0.00 | 43 | 1013.7 |
| 20260506031003 | 18 | 250 | 6.4 | 9.7 | 0.00 | 0.00 | 0.00 | 41 | 1013.7 |
| 20260506030003 | 18 | 244 | 6.4 | 12.9 | 0.00 | 0.00 | 0.00 | 39 | 1013.7 |
| 20260506025003 | 20 | 204 | 4.8 | 11.3 | 0.00 | 0.00 | 0.00 | 38 | 1013.7 |
| 20260506024003 | 20 | 223 | 8.0 | 14.5 | 0.00 | 0.00 | 0.00 | 37 | 1013.7 |
| 20260506023213 | 20 | 225 | 8.0 | 16.1 | 0.00 | 0.00 | 0.00 | 35 | 1013.6 |
| 20260506022003 | 21 | 219 | 6.4 | 12.9 | 0.00 | 0.00 | 0.00 | 35 | 1013.7 |
| 20260506021003 | 21 | 228 | 8.0 | 22.5 | 0.00 | 0.00 | 0.00 | 33 | 1013.5 |
| 20260506020003 | 21 | 222 | 8.0 | 19.3 | 0.00 | 0.00 | 0.00 | 33 | 1013.6 |
| 20260506015213 | 21 | 189 | 6.4 | 14.5 | 0.00 | 0.00 | 0.00 | 34 | 1013.4 |
| 20260506014003 | 21 | 186 | 11.3 | 19.3 | 0.00 | 0.00 | 0.00 | 36 | 1013.5 |
| 20260506013213 | 21 | 186 | 9.7 | 19.3 | 0.00 | 0.00 | 0.00 | 33 | 1013.5 |
| 20260506012213 | 21 | 210 | 8.0 | 16.1 | 0.00 | 0.00 | 0.00 | 34 | 1013.5 |
| 20260506011003 | 21 | 184 | 9.7 | 19.3 | 0.00 | 0.00 | 0.00 | 35 | 1013.5 |
| 20260506010003 | 21 | 211 | 4.8 | 19.3 | 0.00 | 0.00 | 0.00 | 33 | 1013.6 |
| 20260506005003 | 20 | 148 | 4.8 | 9.7 | 0.00 | 0.00 | 0.00 | 35 | 1013.6 |
| 20260506004003 | 21 | 179 | 11.3 | 17.7 | 0.00 | 0.00 | 0.00 | 34 | 1013.7 |
| 20260506003003 | 21 | 161 | 9.7 | 16.1 | 0.00 | 0.00 | 0.00 | 35 | 1013.6 |
| 20260506002212 | 21 | 173 | 8.0 | 14.5 | 0.00 | 0.00 | 0.00 | 33 | 1013.7 |
| 20260506001003 | 21 | 151 | 8.0 | 22.5 | 0.00 | 0.00 | 0.00 | 34 | 1013.7 |
| 20260506000003 | 22 | 166 | 9.7 | 20.9 | 0.00 | 0.00 | 0.00 | 35 | 1013.8 |
| 20260505235003 | 21 | 181 | 6.4 | 16.1 | 0.00 | 0.00 | 0.00 | 34 | 1014.0 |
| 20260505234004 | 21 | 164 | 11.3 | 20.9 | 0.00 | 0.00 | 0.00 | 34 | 1014.0 |
| 20260505233214 | 21 | 142 | 9.7 | 19.3 | 0.00 | 0.00 | 0.00 | 35 | 1014.0 |
| 20260505232214 | 21 | 149 | 9.7 | 19.3 | 0.00 | 0.00 | 0.00 | 35 | 1014.1 |
| 20260505231003 | 22 | 172 | 9.7 | 20.9 | 0.00 | 0.00 | 0.00 | 33 | 1014.1 |
| 20260505230004 | 22 | 221 | 4.8 | 16.1 | 0.00 | 0.00 | 0.00 | 35 | 1014.3 |
| 20260505225003 | 21 | 248 | 6.4 | 17.7 | 0.00 | 0.00 | 0.00 | 33 | 1014.3 |
| 20260505224003 | 21 | 202 | 11.3 | 19.3 | 0.00 | 0.00 | 0.00 | 32 | 1014.3 |
| 20260505223214 | 22 | 180 | 6.4 | 19.3 | 0.00 | 0.00 | 0.00 | 33 | 1014.4 |
| 20260505222003 | 22 | 138 | 3.2 | 11.3 | 0.00 | 0.00 | 0.00 | 33 | 1014.5 |
| 20260505221003 | 21 | 204 | 4.8 | 17.7 | 0.00 | 0.00 | 0.00 | 34 | 1014.5 |
| 20260505220004 | 21 | 185 | 9.7 | 19.3 | 0.00 | 0.00 | 0.00 | 35 | 1014.6 |
| 20260505215003 | 21 | 123 | 3.2 | 12.9 | 0.00 | 0.00 | 0.00 | 34 | 1014.7 |
| 20260505214003 | 21 | 65 | 3.2 | 12.9 | 0.00 | 0.00 | 0.00 | 36 | 1014.8 |
| 20260505213003 | 21 | 98 | 3.2 | 9.7 | 0.00 | 0.00 | 0.00 | 36 | 1014.9 |
| 20260505212003 | 21 | 127 | 6.4 | 14.5 | 0.00 | 0.00 | 0.00 | 35 | 1014.9 |
| 20260505211213 | 20 | 96 | 8.0 | 17.7 | 0.00 | 0.00 | 0.00 | 37 | 1015.0 |
| 20260505210003 | 21 | 110 | 6.4 | 16.1 | 0.00 | 0.00 | 0.00 | 37 | 1015.1 |
| 20260505205003 | 20 | 117 | 4.8 | 14.5 | 0.00 | 0.00 | 0.00 | 37 | 1015.2 |
| 20260505204003 | 20 | 95 | 3.2 | 11.3 | 0.00 | 0.00 | 0.00 | 38 | 1015.2 |
| 20260505203003 | 20 | 105 | 3.2 | 11.3 | 0.00 | 0.00 | 0.00 | 38 | 1015.3 |
| 20260505202213 | 19 | 58 | 0.0 | 4.8 | 0.00 | 0.00 | 0.00 | 39 | 1015.3 |
| 20260505201003 | 19 | 83 | 3.2 | 8.0 | 0.00 | 0.00 | 0.00 | 38 | 1015.3 |
| 20260505200003 | 20 | 55 | 3.2 | 12.9 | 0.00 | 0.00 | 0.00 | 37 | 1015.4 |
| 20260505195003 | 20 | 93 | 6.4 | 14.5 | 0.00 | 0.00 | 0.00 | 37 | 1015.4 |
| 20260505194003 | 20 | 104 | 4.8 | 16.1 | 0.00 | 0.00 | 0.00 | 37 | 1015.4 |
| 20260505193003 | 20 | 279 | 4.8 | 16.1 | 0.00 | 0.00 | 0.00 | 38 | 1015.3 |
| 20260505192003 | 19 | 234 | 6.4 | 14.5 | 0.00 | 0.00 | 0.00 | 37 | 1015.4 |
| 20260505191003 | 19 | 142 | 6.4 | 16.1 | 0.00 | 0.00 | 0.00 | 38 | 1015.4 |
| 20260505190003 | 19 | 167 | 8.0 | 16.1 | 0.00 | 0.00 | 0.00 | 38 | 1015.4 |
| 20260505185003 | 19 | 136 | 4.8 | 16.1 | 0.00 | 0.00 | 0.00 | 38 | 1015.4 |
| 20260505184003 | 19 | 88 | 3.2 | 12.9 | 0.00 | 0.00 | 0.00 | 37 | 1015.5 |
| 20260505183212 | 20 | 170 | 3.2 | 9.7 | 0.00 | 0.00 | 0.00 | 38 | 1015.5 |
| 20260505182003 | 19 | 162 | 4.8 | 16.1 | 0.00 | 0.00 | 0.00 | 37 | 1015.4 |
| 20260505181214 | 19 | 140 | 3.2 | 14.5 | 0.00 | 0.00 | 0.00 | 37 | 1015.4 |
| 20260505180214 | 19 | 117 | 1.6 | 6.4 | 0.00 | 0.00 | 0.00 | 36 | 1015.4 |
| 20260505175003 | 18 | 114 | 4.8 | 11.3 | 0.00 | 0.00 | 0.00 | 38 | 1015.4 |
| 20260505174003 | 18 | 121 | 3.2 | 11.3 | 0.00 | 0.00 | 0.00 | 39 | 1015.4 |
| 20260505173214 | 18 | 119 | 3.2 | 11.3 | 0.00 | 0.00 | 0.00 | 39 | 1015.4 |
| 20260505172004 | 18 | 134 | 0.0 | 6.4 | 0.00 | 0.00 | 0.00 | 41 | 1015.4 |
| 20260505171003 | 18 | 137 | 1.6 | 8.0 | 0.00 | 0.00 | 0.00 | 38 | 1015.4 |
| 20260505170214 | 18 | 162 | 1.6 | 9.7 | 0.00 | 0.00 | 0.00 | 38 | 1015.5 |
| 20260505165003 | 18 | 314 | 0.0 | 4.8 | 0.00 | 0.00 | 0.00 | 36 | 1015.4 |
| 20260505164214 | 17 | 348 | 0.0 | 8.0 | 0.00 | 0.00 | 0.00 | 38 | 1015.3 |
| 20260505163003 | 17 | 301 | 0.0 | 1.6 | 0.00 | 0.00 | 0.00 | 36 | 1015.3 |
| 20260505162003 | 17 | 108 | 1.6 | 8.0 | 0.00 | 0.00 | 0.00 | 38 | 1015.3 |
| 20260505161003 | 16 | 114 | 3.2 | 9.7 | 0.00 | 0.00 | 0.00 | 43 | 1015.2 |
| 20260505160213 | 16 | 101 | 3.2 | 6.4 | 0.00 | 0.00 | 0.00 | 43 | 1015.2 |
| 20260505153003 | 15 | 86 | 3.2 | 8.0 | 0.00 | 0.00 | 0.00 | 43 | 1015.3 |
| 20260505152003 | 15 | 88 | 1.6 | 6.4 | 0.00 | 0.00 | 0.00 | 45 | 1015.2 |
| 20260505151003 | 15 | 84 | 1.6 | 8.0 | 0.00 | 0.00 | 0.00 | 43 | 1015.2 |
| 20260505125003 | 12 | 343 | 4.8 | 8.0 | 0.00 | 0.00 | 0.00 | 53 | 1013.8 |
| 20260505124214 | 12 | 344 | 4.8 | 8.0 | 0.00 | 0.00 | 0.00 | 52 | 1013.8 |
| 20260505123003 | 12 | 346 | 6.4 | 9.7 | 0.00 | 0.00 | 0.00 | 52 | 1013.8 |
| 20260505122003 | 12 | 346 | 6.4 | 9.7 | 0.00 | 0.00 | 0.00 | 52 | 1013.7 |
| 20260505121003 | 12 | 343 | 6.4 | 11.3 | 0.00 | 0.00 | 0.00 | 51 | 1013.6 |
| 20260505120004 | 12 | 345 | 6.4 | 11.3 | 0.00 | 0.00 | 0.00 | 52 | 1013.6 |
| 20260505115003 | 12 | 341 | 8.0 | 12.9 | 0.00 | 0.00 | 0.00 | 52 | 1013.4 |
| 20260505114004 | 12 | 341 | 6.4 | 11.3 | 0.00 | 0.00 | 0.00 | 53 | 1013.4 |
| 20260505113003 | 12 | 341 | 4.8 | 9.7 | 0.00 | 0.00 | 0.00 | 54 | 1013.4 |
| 20260505112214 | 12 | 346 | 4.8 | 11.3 | 0.00 | 0.00 | 0.00 | 54 | 1013.5 |
| 20260505111214 | 12 | 344 | 3.2 | 8.0 | 0.00 | 0.00 | 0.00 | 55 | 1013.5 |
| 20260505102003 | 12 | 344 | 6.4 | 9.7 | 0.00 | 0.00 | 0.00 | 51 | 1013.2 |
| 20260505101003 | 12 | 341 | 4.8 | 9.7 | 0.00 | 0.00 | 0.00 | 53 | 1013.1 |
| 20260505100003 | 12 | 347 | 4.8 | 9.7 | 0.00 | 0.00 | 0.00 | 53 | 1013.0 |
| 20260505095003 | 12 | 340 | 4.8 | 8.0 | 0.00 | 0.00 | 0.00 | 51 | 1013.1 |
| 20260505094003 | 12 | 341 | 4.8 | 8.0 | 0.00 | 0.00 | 0.00 | 50 | 1013.0 |
| 20260505093004 | 12 | 344 | 6.4 | 9.7 | 0.00 | 0.00 | 0.00 | 50 | 1013.0 |
| 20260505092213 | 12 | 341 | 6.4 | 11.3 | 0.00 | 0.00 | 0.00 | 50 | 1013.0 |
| 20260505091003 | 12 | 341 | 6.4 | 9.7 | 0.00 | 0.00 | 0.00 | 49 | 1013.0 |
| 20260505090004 | 12 | 342 | 6.4 | 9.7 | 0.00 | 0.00 | 0.00 | 48 | 1013.0 |
| 20260505085003 | 13 | 337 | 4.8 | 9.7 | 0.00 | 0.00 | 0.00 | 47 | 1013.0 |
| 20260505084004 | 13 | 337 | 3.2 | 8.0 | 0.00 | 0.00 | 0.00 | 47 | 1013.0 |
| 20260505083003 | 13 | 339 | 4.8 | 9.7 | 0.00 | 0.00 | 0.00 | 47 | 1013.0 |
| 20260505082003 | 13 | 341 | 6.4 | 9.7 | 0.00 | 0.00 | 0.00 | 47 | 1013.0 |
| 20260505081003 | 13 | 344 | 6.4 | 9.7 | 0.00 | 0.00 | 0.00 | 47 | 1013.0 |
| 20260505080213 | 13 | 341 | 4.8 | 9.7 | 0.00 | 0.00 | 0.00 | 48 | 1013.0 |
| 20260505075003 | 13 | 328 | 1.6 | 8.0 | 0.00 | 0.00 | 0.00 | 46 | 1012.9 |
| 20260505074003 | 14 | 340 | 3.2 | 9.7 | 0.00 | 0.00 | 0.00 | 45 | 1012.9 |
| 20260505073003 | 14 | 333 | 1.6 | 8.0 | 0.00 | 0.00 | 0.00 | 46 | 1012.8 |
| 20260505072003 | 15 | 322 | 0.0 | 6.4 | 0.00 | 0.00 | 0.00 | 45 | 1012.7 |
| 20260505071003 | 15 | 319 | 0.0 | 6.4 | 0.00 | 0.00 | 0.00 | 45 | 1012.6 |
| 20260505070004 | 15 | 317 | 1.6 | 8.0 | 0.00 | 0.00 | 0.00 | 43 | 1012.5 |